Weather History for Pocatello, ID

Change the Weather History Date:

Wednesday, May 9, 2012

  Actual Average Record
Temperature  
Mean Temperature 57 °F 52 °F  
Max Temperature 82 °F 66 °F 85 °F (1954)
Min Temperature 32 °F 38 °F 20 °F (2002)
Degree Days  
Heating Degree Days 8 13  
Month to date heating degree days 134 129  
Since 1 July heating degree days 6292 6823  
Cooling Degree Days 0 0  
Month to date cooling degree days 0 0  
Year to date cooling degree days 0 0  
Growing Degree Days 6 (Base 50)    
Moisture  
Dew Point 27 °F    
Average Humidity 44    
Maximum Humidity 75    
Minimum Humidity 12    
Precipitation  
Precipitation 0.00 in 0.04 in 0.86 in (2011)
Month to date precipitation T 0.42  
Year to date precipitation 4.29 4.79  
Snow  
Snow 0.00 in - - ()
Month to date snowfall 0.0  
Since 1 July snowfall 15.8  
Snow Depth 0.00 in    
Sea Level Pressure  
Sea Level Pressure 29.89 in    
Wind  
Wind Speed 8 mph (SW)    
Max Wind Speed 21 mph    
Max Gust Speed 24 mph    
Visibility 10 miles    
Events      
T = Trace of Precipitation, MM = Missing Value Source: NWS Daily Summary

Daily Weather History Graph

Daily Weather History Graph

Search for Another Location

Airport:

Trip Planner

Search our weather history database for the weather conditions in past years. The results will help you decide how hot, cold, wet, or windy it might be!

Date:

Astronomy

May. 09, 2012 Rise Set
Actual Time 6:13 AM MDT 8:40 PM MDT
Civil Twilight 5:41 AM MDT 9:12 PM MDT
Nautical Twilight 5:01 AM MDT 9:52 PM MDT
Astronomical Twilight 4:17 AM MDT 10:37 PM MDT
Moon No Moon Rise 9:31 AM MDT (5/9)
Length of Visible Light 15h 31m
Length of Day
14h 27m
Waning Gibbous, 82% of the Moon is Illuminated
May 9
Waning Gibbous
May 12
Last Quarter
May 20
New
May 28
First Quarter
Jun 4
Full

Hourly Weather History & Observations

Time (MDT) Temp. Windchill Dew Point Humidity Pressure Visibility Wind Dir Wind Speed Gust Speed Precip Events Conditions
12:53 AM 45.0 °F 43.5 °F 27.0 °F 49% 30.01 in 10.0 mi ENE 3.5 mph - N/A   Clear
1:53 AM 42.1 °F - 27.0 °F 55% 30.00 in 10.0 mi Calm Calm - N/A   Clear
2:53 AM 37.9 °F - 27.0 °F 65% 30.00 in 10.0 mi Calm Calm - N/A   Clear
3:53 AM 39.0 °F 35.7 °F 26.1 °F 60% 29.98 in 10.0 mi NW 4.6 mph - N/A   Clear
4:53 AM 37.0 °F - 28.9 °F 73% 29.99 in 10.0 mi Calm Calm - N/A   Clear
5:53 AM 33.1 °F 28.7 °F 27.0 °F 78% 30.00 in 10.0 mi NE 4.6 mph - N/A   Clear
6:53 AM 36.0 °F 32.1 °F 28.9 °F 76% 30.00 in 10.0 mi North 4.6 mph - N/A   Clear
7:53 AM 46.9 °F - 32.0 °F 56% 29.99 in 10.0 mi Calm Calm - N/A   Clear
8:53 AM 55.9 °F - 34.0 °F 44% 30.02 in 10.0 mi North 5.8 mph - N/A   Clear
9:53 AM 61.0 °F - 35.1 °F 38% 30.01 in 10.0 mi Variable 3.5 mph - N/A   Clear
10:53 AM 69.1 °F - 34.0 °F 27% 29.96 in 10.0 mi ENE 3.5 mph - N/A   Clear
11:53 AM 73.9 °F - 34.0 °F 23% 29.94 in 10.0 mi NW 8.1 mph - N/A   Clear
12:53 PM 75.9 °F - 33.1 °F 21% 29.91 in 10.0 mi West 13.8 mph - N/A   Clear
1:53 PM 79.0 °F - 23.0 °F 13% 29.89 in 10.0 mi West 12.7 mph - N/A   Clear
2:53 PM 81.0 °F - 24.1 °F 12% 29.87 in 10.0 mi West 15.0 mph - N/A   Clear
3:53 PM 82.0 °F - 24.1 °F 12% 29.84 in 10.0 mi West 17.3 mph 21.9 mph N/A   Clear
4:53 PM 81.0 °F - 24.1 °F 12% 29.82 in 10.0 mi West 12.7 mph 18.4 mph N/A   Clear
5:53 PM 80.1 °F - 25.0 °F 13% 29.81 in 10.0 mi SW 9.2 mph - N/A   Clear
6:53 PM 80.1 °F - 24.1 °F 13% 29.78 in 10.0 mi Variable 4.6 mph - N/A   Clear
7:27 PM 75.2 °F - 24.8 °F 15% 29.86 in 10.0 mi South 15.0 mph - N/A   Clear
7:53 PM 73.0 °F - 25.0 °F 17% 29.76 in 10.0 mi South 11.5 mph - N/A   Clear
8:53 PM 68.0 °F - 21.0 °F 17% 29.74 in 10.0 mi South 13.8 mph - N/A   Clear
9:53 PM 66.0 °F - 21.9 °F 19% 29.73 in 10.0 mi South 13.8 mph - N/A   Clear
10:53 PM 66.0 °F - 21.9 °F 19% 29.70 in 10.0 mi South 13.8 mph - N/A   Clear
11:53 PM 64.9 °F - 21.0 °F 19% 29.68 in 10.0 mi South 12.7 mph - N/A   Clear